Location: Bayou Vista
(29.6905°N, 91.2709°W)
Time: 03:23:23
(UTC+00:00)

Transit 4A - Pass Details

Date: 15 August 2024
Orbit: 867 x 976 km, 66.8° (Epoch: 09 September)

Event Time Altitude Azimuth Distance (km) Brightness Sun altitude
Rises 02:35:59 0° 320° (NW) 3,593 12.2 -22.6°
Reaches altitude 10° 02:38:51 10° 309° (NW) 2,663 11.4 -23.1°
Maximum altitude 02:43:57 27° 253° (WSW) 1,735 9.7 -24.0°
Drops below altitude 10° 02:49:08 10° 198° (SSW) 2,699 10.1 -24.9°
Enters shadow 02:49:19 - 197° (SSW) 2,751 10.2 -25.0°
